Hourly Data Report for October 10, 2015

All times are specified in Local Standard Time (LST). Add 1 hour to adjust for Daylight Saving Time where and when it is observed.

KITCHENER/WATERLOO
ONTARIO

43°27'39.000" N
80°22'43.000" W
321.60 m
6144239
71368
YKF

Download Data

Hourly Data (October 2015)
Hourly Data Report for October 10, 2015
Temp Definition
°C
Dew Point Temp Definition
°C
Rel Hum Definition
%
Wind Dir Definition
10's deg

Wind Spd Definition
km/h
Visibility Definition
km
Stn Press Definition
kPa
Hmdx Definition


Wind Chill Definition


Weather Definition


TIME
00:00 Legend Double Dagger 3.8 3.5 98   0 1.2 98.25     Fog
01:00 Legend Double Dagger 3.7 3.6 99 30 4 11.3 98.25     LegendNANA
02:00 Legend Double Dagger 4.1 4.0 99 6 9 16.1 98.29     LegendNANA
03:00 Legend Double Dagger 3.7 3.6 99 36 5 6.4 98.31     Rain,Fog
04:00 Legend Double Dagger 2.0 2.0 100   0 4.0 98.34     Fog
05:00 Legend Double Dagger 2.5 2.5 100 36 4 2.8 98.36     Fog
06:00 Legend Double Dagger 1.5 1.5 100 30 5 0.8 98.35     Rain,Fog
07:00 Legend Double Dagger 2.4 2.4 100 LegendMM 4 4.8 98.40     Fog
08:00 Legend Double Dagger 5.1 5.0 99   0 16.1 98.42     LegendNANA
09:00 Legend Double Dagger 8.4 6.1 85 LegendMM 4 16.1 98.42     LegendNANA
10:00 Legend Double Dagger 10.9 6.7 75 18 9 16.1 98.43     LegendNANA
11:00 Legend Double Dagger 12.6 6.4 66 25 9 16.1 98.36     LegendNANA
12:00 Legend Double Dagger 13.8 5.3 56 26 8 16.1 98.28     LegendNANA
13:00 Legend Double Dagger 13.7 5.5 57 27 18 16.1 98.19     LegendNANA
14:00 Legend Double Dagger 15.5 5.4 51 24 18 16.1 98.06     LegendNANA
15:00 Legend Double Dagger 15.9 5.4 49 24 18 16.1 97.96     LegendNANA
16:00 Legend Double Dagger 15.1 5.4 52 25 21 16.1 97.92     LegendNANA
17:00 Legend Double Dagger 14.1 5.5 56 24 17 16.1 97.85     LegendNANA
18:00 Legend Double Dagger 11.6 5.3 65 22 9 16.1 97.81     LegendNANA
19:00 Legend Double Dagger 11.4 7.0 74 21 15 16.1 97.81     LegendNANA
20:00 Legend Double Dagger 10.3 7.2 81 20 13 16.1 97.76     LegendNANA
21:00 Legend Double Dagger 9.2 6.8 85 20 11 16.1 97.71     LegendNANA
22:00 Legend Double Dagger 9.0 6.8 86 21 11 16.1 97.70     LegendNANA
23:00 Legend Double Dagger 8.9 6.7 86 19 13 16.1 97.65     LegendNANA

Notes on Data Quality.

Legend

  • E = Estimated
  • M = Missing
  • NA = Not Available
  • ‡ = Partner data that is not subject to review by the National Climate Archives
Date modified: